Regional Weather Roundup
Issued by NWS

Home | Current Version | Previous Version | Text Only | Print | Product List | Glossary On
Versions: 1 2 3 4 5 6 7 8 9 10 11 12 13 14 15 16 17 18 19 20 21 22 23 24 25 26 27 28 29 30 31 32 33 34 35 36 37 38 39 40 41 42 43 44 45 46 47 48 49 50
000
ASUS44 KMEG 201000
RWRTN
TENNESSEE HOURLY STATE WEATHER ROUNDUP
NATIONAL WEATHER SERVICE MEMPHIS TN
500 AM CDT SUN AUG 20 2017

TNZ002-004-019-021-049-052-054-088>092-201100-
WEST TENNESSEE

CITY           SKY/WX    TMP DP  RH WIND       PRES   REMARKS
MEMPHIS INTL   CLEAR     78  75  90 S5        29.99R
NWS MEMPHIS      N/A     77 N/A N/A MISG        N/A
JACKSON        CLEAR     68  68 100 CALM      30.00R FOG
DYERSBURG      CLEAR     71  71 100 CALM      30.00R
$$

TNZ008-025-027-028-033-062-065-066-201100-
NORTH MIDDLE TENNESSEE

CITY           SKY/WX    TMP DP  RH WIND       PRES   REMARKS
NASHVILLE      CLEAR     73  70  90 CALM      30.03S
CLARKSVILLE    CLOUDY    67  66  97 CALM      30.02R
SMYRNA         PTCLDY    70  69  97 CALM      30.05R
CROSSVILLE     CLEAR     63  62  97 CALM      30.12R
$$

TNZ061-075-076-078-094-096-097-201100-
SOUTH MIDDLE TENNESSEE

CITY           SKY/WX    TMP DP  RH WIND       PRES   REMARKS
$$

TNZ017-018-042-046-047-201100-
NORTHEAST TENNESSEE

CITY           SKY/WX    TMP DP  RH WIND       PRES   REMARKS
TRI CITIES     PTCLDY    64  64 100 CALM      30.12R FOG
$$

TNZ012-013-036-069-073-074-201100-
CENTRAL EAST TENNESSEE

CITY           SKY/WX    TMP DP  RH WIND       PRES   REMARKS
KNOXVILLE      CLEAR     67  65  93 E3        30.07R
OAK RIDGE      CLOUDY    68  67  96 CALM      30.10R FOG
GATLINBURG     CLEAR     63  63 100 CALM      30.09R
$$

TNZ083-085-099-201100-
SOUTHEAST TENNESSEE

CITY           SKY/WX    TMP DP  RH WIND       PRES   REMARKS
CHATTANOOGA    PTCLDY    70  67  90 CALM      30.06R
$$

SKY/WX REPORTED AS FAIR MEANS FEW OR NO CLOUDS BELOW
12 THOUSAND FEET.




USA.gov is the U.S. government's official web portal to all federal, state and local government web resources and services.